Location: Alexander
(41.3564°N, 81.5960°W)
Time: 08:05:15
(UTC+00:00)

Hubble Space Telescope - Pass Details

Date: 24 January 2021
Orbit: 535 x 539 km, 28.5° (Epoch: 03 March)

Event Time Altitude Azimuth Distance (km) Brightness Sun altitude
Rises 23:40:26 0° 242° (WSW) 2,673 6.1 -12.7°
Reaches altitude 10° 23:43:55 10° 212° (SSW) 1,782 4.1 -13.4°
Maximum altitude 23:45:35 12° 188° (S) 1,645 3.5 -13.7°
Drops below altitude 10° 23:47:16 10° 164° (SSE) 1,782 3.4 -14.0°
Enters shadow 23:49:42 - 140° (SE) 2,351 3.8 -14.4°
